Culiacan, Mexico

4:02 PM MDT on July 25, 2017 (GMT -0600)
Culiacan International

Weather History for MMCL - October, 2012

Change the Weather History Date:

Wednesday, October 24, 2012

  Actual Average Record
Temperature  
Mean Temperature 79 °F -  
Max Temperature 94 °F 92 °F 100 °F (2014)
Min Temperature 64 °F 70 °F 64 °F (2007)
Cooling Degree Days 14    
Growing Degree Days 29 (Base 50)    
Moisture  
Dew Point 68 °F    
Average Humidity 63    
Maximum Humidity 94    
Minimum Humidity 33    
Precipitation  
Precipitation 0.00 in - - ()
Sea Level Pressure  
Sea Level Pressure 29.82 in    
Wind  
Wind Speed 2 mph ()    
Max Wind Speed 23 mph    
Max Gust Speed -    
Visibility 9.7 miles    
Events      
Averages and records for this station are not official NWS values.
T = Trace of Precipitation, MM = Missing Value Source: Averaged Metar Reports

Daily Weather History Graph

Daily Weather History Graph

Search for Another Location

Airport or City:

Trip Planner

Search our weather history database for the weather conditions in past years. The results will help you decide how hot, cold, wet, or windy it might be!

Date:

Astronomy

Oct. 24, 2012 Rise Set
Actual Time 7:12 AM MDT 6:34 PM MDT
Civil Twilight 6:49 AM MDT 6:58 PM MDT
Nautical Twilight 6:22 AM MDT 7:24 PM MDT
Astronomical Twilight 5:56 AM MDT 7:51 PM MDT
Moon 3:26 PM MDT (10/24) 2:40 AM MDT (10/24)
Length of Visible Light 12h 08m
Length of Day
11h 22m
Waxing Gibbous, 76% of the Moon is Illuminated
Oct 24
Waxing Gibbous
Oct 29
Full
Nov 6
Last Quarter
Nov 13
New
Nov 20
First Quarter

Hourly Weather History & Observations

Time (MDT) Temp. Heat Index Dew Point Humidity Pressure Visibility Wind Dir Wind Speed Gust Speed Precip Events Conditions
5:35 AM 66 °F - 64 °F 93% 29.86 in 6 mi Calm Calm - -  
5:50 AM 69.8 °F - 68.0 °F 94% 29.79 in 10.0 mi Calm Calm - N/A   Clear
6:43 AM 69.8 °F - 68.0 °F 94% 29.81 in 10.0 mi Calm Calm - N/A   Clear
7:40 AM 69.8 °F - 68.0 °F 94% 29.83 in 10.0 mi Calm Calm - N/A   Clear
8:40 AM 72 °F - 68 °F 82% 29.93 in 10 mi SW 2.2 mph - -   Haze
8:40 AM 71.6 °F - 66.2 °F 83% 29.82 in 10.0 mi Calm Calm - N/A   Clear
9:40 AM 78.8 °F - 66.2 °F 65% 29.86 in 10.0 mi Calm Calm - N/A   Clear
10:40 AM 82.4 °F 83.9 °F 64.4 °F 54% 29.86 in 10.0 mi Calm Calm - N/A   Clear
11:40 AM 85 °F - 71 °F 54% 29.91 in 10 mi SW 2.2 mph - -   Haze
11:40 AM 89.6 °F 90.1 °F 62.6 °F 40% 29.87 in 10.0 mi Calm Calm - N/A   Clear
12:41 PM 91.4 °F 98.4 °F 71.6 °F 52% 29.83 in 10.0 mi Calm Calm - N/A   Clear
1:50 PM 93.2 °F 100.5 °F 71.6 °F 49% 29.85 in 10.0 mi WNW 5.8 mph - N/A   Clear
2:40 PM 93 °F - 67 °F 33% 29.85 in 10 mi SW 2.2 mph - -   Haze
2:45 PM 95.0 °F 101.3 °F 69.8 °F 44% 29.73 in 10.0 mi NNW 11.5 mph - N/A   Clear
3:41 PM 95.0 °F 101.3 °F 69.8 °F 44% 29.76 in 10.0 mi West 11.5 mph - N/A   Clear
4:40 PM 95.0 °F 101.3 °F 69.8 °F 44% 29.74 in 10.0 mi WNW 11.5 mph - N/A   Clear
5:40 PM 88 °F - 63 °F 33% 29.82 in 10 mi SW 4.5 mph - -   Haze
5:40 PM 91.4 °F 95.4 °F 68.0 °F 46% 29.74 in 10.0 mi WNW 23.0 mph - N/A   Clear
6:40 PM 86.0 °F 89.4 °F 68.0 °F 55% 29.76 in 10.0 mi WNW 4.6 mph - N/A   Clear
7:40 PM 82.4 °F 86.3 °F 69.8 °F 66% 29.77 in 10.0 mi Calm Calm - N/A   Clear
8:40 PM 73 °F - 69 °F 84% 29.86 in 6 mi SW 2.2 mph - -  
8:41 PM 80.6 °F 83.9 °F 69.8 °F 70% 29.82 in 10.0 mi NNW 5.8 mph - N/A   Clear
9:40 PM 77.0 °F - 71.6 °F 83% 29.79 in 10.0 mi Calm Calm - N/A   Clear